EW1631 Weather Reports


time (UTC)temp
F
wind
direction
speed
knots
gust
knots
rain 1hr
in
rain 24hr
in
rain mn
in
humidity
%
barometer
mb
20200218230102 79 82 1.7 6.1 0.00 0.00 0.00 15 1010.6
20200218224649 80 85 0.9 3.5 0.00 0.00 0.00 14 1010.8
20200218220250 79 91 0.9 4.3 0.00 0.00 0.00 15 1011.1
20200218214637 78 91 1.7 4.3 0.00 0.00 0.00 16 1011.2
20200218213143 79 110 2.6 6.1 0.00 0.00 0.00 15 1011.5
20200218210038 79 109 2.6 4.3 0.00 0.00 0.00 15 1011.6
20200218204618 79 115 1.7 6.1 0.00 0.00 0.00 16 1011.7
20200218203028 77 109 0.9 4.3 0.00 0.00 0.00 17 1012.5
20200218200106 77 103 1.7 6.1 0.00 0.00 0.00 17 1012.6
20200218194640 77 95 2.6 5.2 0.00 0.00 0.00 17 1012.8
20200218193113 76 83 2.6 7.0 0.00 0.00 0.00 18 1013.2
20200218190200 75 65 1.7 7.8 0.00 0.00 0.00 19 1013.6
20200218184657 74 54 5.2 8.7 0.00 0.00 0.00 18 1013.6
20200218180215 73 98 2.6 5.2 0.00 0.00 0.00 22 1013.8
20200218174738 73 128 0.9 2.6 0.00 0.00 0.00 29 1013.7
20200218173204 68 360 0.0 0.0 0.00 0.00 0.00 36 1013.6
20200218170148 67 360 0.0 0.0 0.00 0.00 0.00 37 1013.6
20200218164608 64 360 0.9 2.6 0.00 0.00 0.00 41 1013.7
20200218160117 58 359 0.9 2.6 0.00 0.00 0.00 49 1013.2
20200218154741 55 359 0.9 2.6 0.00 0.00 0.00 52 1013.1
20200218153113 52 358 0.9 3.5 0.00 0.00 0.00 56 1012.7
20200218150046 51 352 0.0 0.9 0.00 0.00 0.00 57 1012.6
20200218144535 51 352 0.0 0.9 0.00 0.00 0.00 56 1012.4
20200218143122 52 352 1.7 3.5 0.00 0.00 0.00 55 1011.9
20200218140153 52 352 0.0 1.7 0.00 0.00 0.00 54 1011.7
20200218134535 53 352 0.0 1.7 0.00 0.00 0.00 53 1011.5
20200218133040 54 352 0.0 0.0 0.00 0.00 0.00 52 1011.5
20200218130012 55 352 0.9 2.6 0.00 0.00 0.00 50 1011.3
20200218124545 55 352 0.9 2.6 0.00 0.00 0.00 49 1011.2
20200218123036 56 352 0.0 0.9 0.00 0.00 0.00 48 1011.0
20200218120030 54 355 0.9 3.5 0.00 0.00 0.00 50 1010.8
20200218114538 54 357 0.0 3.5 0.00 0.00 0.00 51 1010.7
20200218113103 54 359 1.7 2.6 0.00 0.00 0.00 51 1010.7
20200218110050 56 359 0.0 0.9 0.00 0.00 0.00 47 1010.7
20200218104611 57 359 0.0 0.0 0.00 0.00 0.00 47 1010.6
20200218103050 56 359 0.0 2.6 0.00 0.00 0.00 46 1010.6
20200218100006 58 359 0.0 1.7 0.00 0.00 0.00 44 1010.7
20200218094725 59 359 0.9 3.5 0.00 0.00 0.00 43 1010.7
20200218093122 59 326 0.0 1.7 0.00 0.00 0.00 43 1010.8
20200218090105 63 327 0.0 2.6 0.00 0.00 0.00 38 1010.7
20200218084616 62 336 0.9 4.3 0.00 0.00 0.00 39 1010.8
20200218083132 61 211 1.7 3.5 0.00 0.00 0.00 40 1010.8
20200218080106 64 312 0.9 4.3 0.00 0.00 0.00 37 1010.7
20200218074628 64 309 2.6 5.2 0.00 0.00 0.00 36 1010.7
20200218073130 64 347 0.9 3.5 0.00 0.00 0.00 36 1010.6
20200218070058 63 310 2.6 5.2 0.00 0.00 0.00 37 1010.6
20200218064622 64 298 5.2 7.8 0.00 0.00 0.00 37 1010.6
20200218063117 61 182 3.5 6.1 0.00 0.00 0.00 42 1010.6
20200218060005 60 133 0.0 1.7 0.00 0.00 0.00 42 1010.7
20200218054503 61 133 0.0 0.0 0.00 0.00 0.00 41 1010.7
20200218050135 59 133 0.0 1.7 0.00 0.00 0.00 44 1010.3
20200218044531 60 133 0.0 0.9 0.00 0.00 0.00 44 1010.3
20200218040004 61 133 0.0 1.7 0.00 0.00 0.00 42 1009.7
20200218034504 62 133 1.7 3.5 0.00 0.00 0.00 42 1009.6
20200218030128 67 132 0.0 0.9 0.00 0.00 0.00 35 1009.1
20200218024638 69 132 0.0 1.7 0.00 0.00 0.00 32 1009.0
20200218020046 73 132 0.0 0.0 0.00 0.00 0.00 27 1008.7
20200218014557 75 132 0.0 0.0 0.00 0.00 0.00 26 1008.6
20200218010010 78 132 1.7 4.3 0.00 0.00 0.00 23 1008.3
20200218004502 79 132 1.7 3.5 0.00 0.00 0.00 22 1008.3
20200218000034 80 131 0.0 5.2 0.00 0.00 0.00 20 1008.5
20200217234609 80 132 0.9 6.1 0.00 0.00 0.00 21 1008.4
20200217233039 80 131 0.9 4.3 0.00 0.00 0.00 20 1008.4